map of FLN home
FLN - Airport
Location
City:  Florianópolis, Santa Catarina, Brazil
Name:Hercílio Luz International Airport
ICAO:SBFL
IATA:FLN

Details
Type:Airport (Aerodrome, Airfield)
Use:Public/Civil, Military, International (customs port of entry)
Latitude:27°40'14"S (-27.670488)
Longitude:48°32'50"W (-48.547180)
Datum:WGS 1984
Elevation:20 ft (6 m)
Variation:19.18°W (WMM2015 magnetic declination)
-0.14° annual change
Runways:2
Longest:7546 × 148 ft (2300 × 45 m), paved

Time
Time Zone:UTC-3 (DST-2)
Local Time:

Weather
METAR:SBFL 070800Z 35009KT CAVOK 21/19 Q1008
TAF:SBFL 062200Z 0700/0724 34005KT CAVOK TN21/0709Z TX26/0717Z
TEMPO 0715/0718 02015KT 9999 SCT030
RMK PDV

Related Locations
Nearby:
Farthest:KKX: 12339 mi / 19857 km
Kikai (Kikaiga Shima) [Kikai Airport], Satsunan Islands, 46, JP

Find:

   beyond  
but within

Other Information
Maps:
NOTAMs:
Links:
Sources:

  
flag of Brazil
flag of Santa Catarina
flag of Florianópolis
  

Sectional Chart

Flight Planning
at skyvector.com

Satellite Image

Google Maps Satellite view

 

Copyright © 2004-2016 Karl L. Swartz. All rights reserved.
The Great Circle Mapper name and logo are trademarks of the Great Circle Mapper.
All other trademarks mentioned herein belong to their respective owners.
Please see credits for attibutions and further copyright information.

  Follow gcmap on Facebook Follow gcmap on Twitter Follow gcmap on Google+ GCmap on LinkedIn

hCard Microformat

Geo Microformat